Hourly Weather Holovne

Today, 16 April, Friday

Time Temperature Precipitation Wind Pressure Humidity
00:00 +1°C° 0.6 mm 4 mps 742 mmHg 97%
01:00 +1°C° 0.6 mm 4 mps 742 mmHg 97%
02:00 +3°C° 0 mm 3 mps 741 mmHg 97%
03:00 +3°C° 0.4 mm 3 mps 741 mmHg 97%
04:00 +3°C° 0.4 mm 3 mps 741 mmHg 97%
05:00 +3°C° 0.4 mm 3 mps 740 mmHg 98%
06:00 +3°C° 1 mm 3 mps 740 mmHg 97%
07:00 +3°C° 1 mm 3 mps 740 mmHg 97%
08:00 +3°C° 0 mm 3 mps 740 mmHg 97%
09:00 +3°C° 0.2 mm 3 mps 740 mmHg 96%
10:00 +3°C° 0.2 mm 3 mps 740 mmHg 96%
11:00 +4°C° 0.2 mm 2 mps 740 mmHg 95%
12:00 +5°C° 0.3 mm 2 mps 741 mmHg 95%
13:00 +5°C° 0.3 mm 2 mps 741 mmHg 95%
14:00 +5°C° 0.3 mm 2 mps 741 mmHg 94%
15:00 +5°C° 0.4 mm 2 mps 741 mmHg 94%
16:00 +6°C° 0.4 mm 2 mps 741 mmHg 94%
17:00 +6°C° 0.4 mm 2 mps 741 mmHg 95%
18:00 +6°C° 0.3 mm 2 mps 741 mmHg 96%
19:00 +6°C° 0.3 mm 2 mps 741 mmHg 97%
20:00 +5°C° 0.3 mm 2 mps 741 mmHg 98%
21:00 +6°C° 0.6 mm 2 mps 741 mmHg 98%
22:00 +6°C° 0.6 mm 2 mps 741 mmHg 98%
23:00 +6°C° 0.6 mm 2 mps 741 mmHg 98%

Tomorrow, 17 April, Saturday

Time Temperature Precipitation Wind Pressure Humidity
00:00 +5°C° 0.3 mm 2 mps 742 mmHg 98%
01:00 +5°C° 0.3 mm 2 mps 742 mmHg 98%
02:00 +5°C° 0.3 mm 2 mps 742 mmHg 98%
03:00 +5°C° 0.1 mm 2 mps 742 mmHg 97%
04:00 +5°C° 0.1 mm 2 mps 743 mmHg 97%
05:00 +4°C° 0.1 mm 2 mps 743 mmHg 97%
06:00 +4°C° 0.1 mm 2 mps 743 mmHg 96%
07:00 +5°C° 0.1 mm 2 mps 744 mmHg 95%
08:00 +5°C° 0.1 mm 2 mps 744 mmHg 95%
09:00 +5°C° 0 mm 2 mps 745 mmHg 92%
10:00 +6°C° 0 mm 2 mps 745 mmHg 89%
11:00 +6°C° 0 mm 2 mps 745 mmHg 87%
12:00 +7°C° 0 mm 2 mps 745 mmHg 84%
13:00 +8°C° 0 mm 2 mps 745 mmHg 81%
14:00 +8°C° 0 mm 2 mps 746 mmHg 77%
15:00 +8°C° 0 mm 2 mps 746 mmHg 77%
16:00 +8°C° 0 mm 2 mps 746 mmHg 76%
17:00 +8°C° 0 mm 2 mps 746 mmHg 75%
18:00 +7°C° 0 mm 2 mps 746 mmHg 78%
19:00 +7°C° 0 mm 2 mps 746 mmHg 81%
20:00 +6°C° 0 mm 2 mps 746 mmHg 84%
21:00 +6°C° 0 mm 2 mps 746 mmHg 86%
22:00 +5°C° 0 mm 2 mps 746 mmHg 87%
23:00 +4°C° 0 mm 2 mps 746 mmHg 89%

Day after tomorrow, 18 April, Sunday

Time Temperature Precipitation Wind Pressure Humidity
00:00 +4°C° 0 mm 2 mps 746 mmHg 90%
01:00 +4°C° 0 mm 2 mps 746 mmHg 91%
02:00 +4°C° 0 mm 2 mps 746 mmHg 91%
03:00 +3°C° 0 mm 2 mps 746 mmHg 92%
04:00 +3°C° 0 mm 2 mps 746 mmHg 92%
05:00 +3°C° 0 mm 2 mps 746 mmHg 93%
06:00 +4°C° 0 mm 2 mps 746 mmHg 89%
07:00 +5°C° 0 mm 2 mps 745 mmHg 85%
08:00 +7°C° 0 mm 2 mps 745 mmHg 81%
09:00 +8°C° 0 mm 2 mps 745 mmHg 77%
10:00 +10°C° 0 mm 2 mps 745 mmHg 72%
11:00 +12°C° 0 mm 2 mps 745 mmHg 68%
12:00 +12°C° 0 mm 2 mps 745 mmHg 68%
13:00 +13°C° 0 mm 2 mps 745 mmHg 69%
14:00 +13°C° 0 mm 2 mps 745 mmHg 69%
15:00 +11°C° 0.2 mm 3 mps 745 mmHg 74%
16:00 +11°C° 0.2 mm 3 mps 745 mmHg 78%
17:00 +10°C° 0.2 mm 3 mps 744 mmHg 83%
18:00 +9°C° 0 mm 3 mps 745 mmHg 83%
19:00 +9°C° 0 mm 2 mps 745 mmHg 84%
20:00 +8°C° 0 mm 2 mps 745 mmHg 85%
21:00 +7°C° 0 mm 2 mps 745 mmHg 85%
22:00 +7°C° 0 mm 2 mps 745 mmHg 86%
23:00 +6°C° 0 mm 2 mps 745 mmHg 87%

19 April, Monday

Time Temperature Precipitation Wind Pressure Humidity
00:00 +5°C° 0 mm 2 mps 745 mmHg 85%
01:00 +5°C° 0 mm 2 mps 745 mmHg 84%
02:00 +6°C° 0 mm 1 mps 745 mmHg 82%
03:00 +6°C° 0 mm 1 mps 745 mmHg 83%
04:00 +5°C° 0 mm 2 mps 745 mmHg 83%
05:00 +5°C° 0 mm 2 mps 744 mmHg 84%
06:00 +6°C° 0 mm 2 mps 744 mmHg 81%
07:00 +7°C° 0 mm 2 mps 744 mmHg 78%
08:00 +8°C° 0 mm 2 mps 744 mmHg 75%
09:00 +9°C° 0 mm 2 mps 744 mmHg 69%
10:00 +10°C° 0 mm 3 mps 744 mmHg 64%
11:00 +12°C° 0 mm 3 mps 743 mmHg 59%
12:00 +12°C° 0.1 mm 3 mps 743 mmHg 60%
13:00 +11°C° 0.1 mm 4 mps 743 mmHg 60%
14:00 +11°C° 0.1 mm 4 mps 742 mmHg 61%
15:00 +11°C° 0.1 mm 4 mps 742 mmHg 62%
16:00 +11°C° 0.1 mm 4 mps 742 mmHg 62%
17:00 +9°C° 0.1 mm 5 mps 742 mmHg 63%
18:00 +8°C° 0 mm 4 mps 742 mmHg 66%
19:00 +8°C° 0 mm 3 mps 742 mmHg 69%
20:00 +7°C° 0 mm 3 mps 742 mmHg 73%
21:00 +7°C° 0 mm 2 mps 741 mmHg 74%
22:00 +7°C° 0 mm 2 mps 741 mmHg 76%
23:00 +7°C° 0 mm 2 mps 741 mmHg 78%

20 April, Tuesday

Time Temperature Precipitation Wind Pressure Humidity
00:00 +6°C° 0 mm 2 mps 740 mmHg 82%
01:00 +5°C° 0 mm 3 mps 740 mmHg 85%
02:00 +5°C° 0 mm 3 mps 739 mmHg 89%
03:00 +5°C° 0 mm 2 mps 739 mmHg 90%
04:00 +5°C° 0 mm 2 mps 739 mmHg 91%
05:00 +6°C° 0 mm 1 mps 739 mmHg 92%
06:00 +5°C° 0.1 mm 2 mps 738 mmHg 89%
07:00 +6°C° 0.1 mm 2 mps 738 mmHg 86%
08:00 +5°C° 0.1 mm 3 mps 738 mmHg 83%
09:00 +6°C° 0.2 mm 4 mps 738 mmHg 78%
10:00 +7°C° 0.2 mm 4 mps 737 mmHg 74%
11:00 +8°C° 0.2 mm 5 mps 737 mmHg 69%
12:00 +8°C° 0.1 mm 6 mps 737 mmHg 67%
13:00 +9°C° 0.1 mm 6 mps 736 mmHg 65%
14:00 +9°C° 0.1 mm 6 mps 736 mmHg 63%
15:00 +9°C° 0.1 mm 6 mps 736 mmHg 63%
16:00 +9°C° 0.1 mm 6 mps 736 mmHg 63%
17:00 +9°C° 0.1 mm 6 mps 736 mmHg 63%
18:00 +8°C° 0.1 mm 5 mps 736 mmHg 70%
19:00 +6°C° 0.1 mm 5 mps 736 mmHg 77%
20:00 +5°C° 0.1 mm 4 mps 736 mmHg 84%
21:00 +5°C° 0.4 mm 5 mps 736 mmHg 86%
22:00 +5°C° 0.4 mm 5 mps 736 mmHg 87%
23:00 +3°C° 0.4 mm 5 mps 736 mmHg 89%

21 April, Wednesday

Time Temperature Precipitation Wind Pressure Humidity
00:00 +3°C° 0 mm 5 mps 736 mmHg 87%
01:00 +5°C° 0 mm 5 mps 736 mmHg 85%
02:00 +5°C° 0 mm 5 mps 736 mmHg 83%
03:00 +3°C° 0 mm 6 mps 736 mmHg 85%
04:00 +3°C° 0 mm 6 mps 736 mmHg 87%
05:00 +3°C° 0 mm 6 mps 736 mmHg 89%
06:00 +4°C° 0 mm 6 mps 736 mmHg 86%
07:00 +4°C° 0 mm 6 mps 737 mmHg 84%
08:00 +4°C° 0 mm 6 mps 737 mmHg 81%
09:00 +6°C° 0 mm 7 mps 737 mmHg 74%
10:00 +8°C° 0 mm 7 mps 738 mmHg 67%
11:00 +9°C° 0 mm 7 mps 738 mmHg 60%
12:00 +9°C° 0 mm 7 mps 738 mmHg 59%
13:00 +9°C° 0 mm 7 mps 739 mmHg 57%
14:00 +10°C° 0 mm 6 mps 739 mmHg 56%
15:00 +10°C° 0 mm 6 mps 739 mmHg 56%
16:00 +10°C° 0 mm 5 mps 740 mmHg 56%
17:00 +10°C° 0 mm 5 mps 740 mmHg 55%
18:00 +9°C° 0 mm 3 mps 740 mmHg 62%
19:00 +8°C° 0 mm 2 mps 741 mmHg 68%
20:00 +7°C° 0 mm 1 mps 741 mmHg 74%
21:00 +7°C° 0 mm 1 mps 742 mmHg 75%
22:00 +7°C° 0 mm 1 mps 742 mmHg 77%
23:00 +5°C° 0 mm 2 mps 742 mmHg 78%
Show more